Time,TemperatureF,DewpointF,PressureIn,WindDirection,WindDirectionDegrees,WindSpeedMPH,WindSpeedGustMPH,Humidity,HourlyPrecipIn,Conditions,Clouds,dailyrainin,SoftwareType,DateUTC
2013-09-10 00:05:00,78.4,61.4,29.82,SW,227,5.0,8.0,56,0.00,,,0.00,Wunderground v.1.15,2013-09-10 05:05:00,
2013-09-10 00:10:00,78.5,61.0,29.82,SSW,207,6.0,8.0,55,0.00,,,0.00,Wunderground v.1.15,2013-09-10 05:10:00,
2013-09-10 00:15:00,78.7,61.2,29.82,SW,219,6.0,9.0,55,0.00,,,0.00,Wunderground v.1.15,2013-09-10 05:15:00,
2013-09-10 00:21:00,78.8,60.7,29.82,SSW,199,6.0,8.0,54,0.00,,,0.00,Wunderground v.1.15,2013-09-10 05:21:00,
2013-09-10 00:27:00,78.8,60.7,29.83,SW,218,7.0,8.0,54,0.00,,,0.00,Wunderground v.1.15,2013-09-10 05:27:00,
2013-09-10 00:33:00,78.9,60.3,29.83,SSW,212,7.0,8.0,53,0.00,,,0.00,Wunderground v.1.15,2013-09-10 05:33:00,
2013-09-10 00:39:00,79.0,60.4,29.83,SW,225,8.0,11.0,53,0.00,,,0.00,Wunderground v.1.15,2013-09-10 05:39:00,
2013-09-10 00:45:00,79.0,60.4,29.83,SW,229,8.0,11.0,53,0.00,,,0.00,Wunderground v.1.15,2013-09-10 05:45:00,
2013-09-10 00:50:00,79.0,60.4,29.83,WSW,242,8.0,8.0,53,0.00,,,0.00,Wunderground v.1.15,2013-09-10 05:50:00,
2013-09-10 00:56:00,78.9,60.3,29.83,SW,221,8.0,9.0,53,0.00,,,0.00,Wunderground v.1.15,2013-09-10 05:56:00,
2013-09-10 01:02:00,78.9,60.3,29.83,SW,228,9.0,14.0,53,0.00,,,0.00,Wunderground v.1.15,2013-09-10 06:02:00,
2013-09-10 01:08:00,78.7,60.1,29.83,WSW,237,8.0,14.0,53,0.00,,,0.00,Wunderground v.1.15,2013-09-10 06:08:00,
2013-09-10 01:13:00,78.6,60.6,29.83,SW,232,7.0,14.0,54,0.00,,,0.00,Wunderground v.1.15,2013-09-10 06:13:00,
2013-09-10 01:19:00,78.4,60.4,29.83,SW,231,7.0,14.0,54,0.00,,,0.00,Wunderground v.1.15,2013-09-10 06:19:00,
2013-09-10 01:24:00,78.3,60.3,29.83,SW,228,8.0,14.0,54,0.00,,,0.00,Wunderground v.1.15,2013-09-10 06:24:00,
2013-09-10 01:30:00,78.2,60.2,29.83,SW,225,8.0,8.0,54,0.00,,,0.00,Wunderground v.1.15,2013-09-10 06:30:00,
2013-09-10 01:36:00,78.1,60.6,29.84,WSW,246,8.0,14.0,55,0.00,,,0.00,Wunderground v.1.15,2013-09-10 06:36:00,
2013-09-10 01:41:00,78.0,60.5,29.84,WSW,242,8.0,14.0,55,0.00,,,0.00,Wunderground v.1.15,2013-09-10 06:41:00,
2013-09-10 01:47:00,77.8,60.3,29.84,SW,217,7.0,14.0,55,0.00,,,0.00,Wunderground v.1.15,2013-09-10 06:47:00,
2013-09-10 01:53:00,77.8,60.3,29.84,SW,221,7.0,14.0,55,0.00,,,0.00,Wunderground v.1.15,2013-09-10 06:53:00,
2013-09-10 01:58:00,77.7,60.8,29.84,SW,218,7.0,14.0,56,0.00,,,0.00,Wunderground v.1.15,2013-09-10 06:58:00,
2013-09-10 02:04:00,77.7,60.8,29.84,SW,232,7.0,13.0,56,0.00,,,0.00,Wunderground v.1.15,2013-09-10 07:04:00,
2013-09-10 02:09:00,77.6,60.7,29.85,SW,224,7.0,13.0,56,0.00,,,0.00,Wunderground v.1.15,2013-09-10 07:09:00,
2013-09-10 02:15:00,77.5,60.6,29.85,SW,227,8.0,13.0,56,0.00,,,0.00,Wunderground v.1.15,2013-09-10 07:15:00,
2013-09-10 02:20:00,77.5,60.6,29.85,SW,231,8.0,8.0,56,0.00,,,0.00,Wunderground v.1.15,2013-09-10 07:20:00,
2013-09-10 02:25:00,77.4,61.0,29.85,WSW,244,7.0,13.0,57,0.00,,,0.00,Wunderground v.1.15,2013-09-10 07:25:00,
2013-09-10 02:31:00,77.5,61.1,29.85,WSW,249,8.0,8.0,57,0.00,,,0.00,Wunderground v.1.15,2013-09-10 07:31:00,
2013-09-10 02:37:00,77.3,60.9,29.85,SW,232,7.0,13.0,57,0.00,,,0.00,Wunderground v.1.15,2013-09-10 07:37:00,
2013-09-10 02:42:00,77.1,61.2,29.85,WSW,244,6.0,13.0,58,0.00,,,0.00,Wunderground v.1.15,2013-09-10 07:42:00,
2013-09-10 02:48:00,77.0,61.1,29.85,WSW,242,6.0,13.0,58,0.00,,,0.00,Wunderground v.1.15,2013-09-10 07:48:00,
2013-09-10 02:54:00,76.9,61.0,29.85,SW,229,6.0,13.0,58,0.00,,,0.00,Wunderground v.1.15,2013-09-10 07:54:00,
2013-09-10 03:00:00,76.6,61.2,29.86,WSW,246,5.0,5.0,59,0.00,,,0.00,Wunderground v.1.15,2013-09-10 08:00:00,
2013-09-10 03:06:00,76.2,61.3,29.86,WSW,252,4.0,11.0,60,0.00,,,0.00,Wunderground v.1.15,2013-09-10 08:06:00,
2013-09-10 03:11:00,76.0,61.0,29.86,WSW,251,4.0,8.0,60,0.00,,,0.00,weatherlink.com 1.10,2013-09-10 08:11:00,
2013-09-10 03:17:00,75.7,61.3,29.86,WSW,255,3.0,11.0,61,0.00,,,0.00,Wunderground v.1.15,2013-09-10 08:17:00,
2013-09-10 03:23:00,75.4,61.0,29.86,WSW,255,3.0,11.0,61,0.00,,,0.00,Wunderground v.1.15,2013-09-10 08:23:00,
2013-09-10 03:28:00,75.2,61.3,29.86,WSW,255,2.0,11.0,62,0.00,,,0.00,Wunderground v.1.15,2013-09-10 08:28:00,
2013-09-10 03:33:00,75.0,61.1,29.86,WSW,255,1.0,11.0,62,0.00,,,0.00,Wunderground v.1.15,2013-09-10 08:33:00,
2013-09-10 03:39:00,74.6,61.2,29.87,WSW,255,0.0,11.0,63,0.00,,,0.00,Wunderground v.1.15,2013-09-10 08:39:00,
2013-09-10 03:44:00,74.3,61.3,29.87,WSW,255,0.0,11.0,64,0.00,,,0.00,Wunderground v.1.15,2013-09-10 08:44:00,
2013-09-10 03:50:00,73.9,61.4,29.87,WSW,255,0.0,11.0,65,0.00,,,0.00,Wunderground v.1.15,2013-09-10 08:50:00,
2013-09-10 03:56:00,73.3,61.0,29.87,WSW,255,0.0,0.0,66,0.00,,,0.00,weatherlink.com 1.10,2013-09-10 08:56:00,
2013-09-10 04:02:00,72.6,61.4,29.87,WSW,255,0.0,3.0,68,0.00,,,0.00,Wunderground v.1.15,2013-09-10 09:02:00,
2013-09-10 04:07:00,71.5,60.8,29.87,WSW,255,0.0,3.0,69,0.00,,,0.00,Wunderground v.1.15,2013-09-10 09:07:00,
2013-09-10 04:13:00,70.7,60.8,29.87,WSW,255,0.0,3.0,71,0.00,,,0.00,Wunderground v.1.15,2013-09-10 09:13:00,
2013-09-10 04:19:00,70.3,60.4,29.87,WSW,255,0.0,3.0,71,0.00,,,0.00,Wunderground v.1.15,2013-09-10 09:19:00,
2013-09-10 04:24:00,70.0,60.6,29.87,WSW,255,0.0,3.0,72,0.00,,,0.00,Wunderground v.1.15,2013-09-10 09:24:00,
2013-09-10 04:29:00,69.7,60.7,29.87,WSW,255,0.0,3.0,73,0.00,,,0.00,Wunderground v.1.15,2013-09-10 09:29:00,
2013-09-10 04:35:00,69.6,60.9,29.87,WSW,255,0.0,3.0,74,0.00,,,0.00,Wunderground v.1.15,2013-09-10 09:35:00,
2013-09-10 04:41:00,69.2,61.0,29.87,WSW,255,0.0,0.0,75,0.00,,,0.00,weatherlink.com 1.10,2013-09-10 09:41:00,
2013-09-10 04:47:00,68.5,60.6,29.87,WSW,255,0.0,3.0,76,0.00,,,0.00,Wunderground v.1.15,2013-09-10 09:47:00,
2013-09-10 04:53:00,68.0,60.5,29.87,WSW,255,1.0,3.0,77,0.00,,,0.00,Wunderground v.1.15,2013-09-10 09:53:00,
2013-09-10 04:58:00,67.4,60.7,29.87,WSW,255,1.0,3.0,79,0.00,,,0.00,Wunderground v.1.15,2013-09-10 09:58:00,
2013-09-10 05:04:00,67.0,60.6,29.87,WSW,255,1.0,3.0,80,0.00,,,0.00,Wunderground v.1.15,2013-09-10 10:04:00,
2013-09-10 05:10:00,66.8,60.8,29.87,WSW,255,0.0,3.0,81,0.00,,,0.00,Wunderground v.1.15,2013-09-10 10:10:00,
2013-09-10 05:16:00,66.5,60.8,29.87,WSW,255,0.0,3.0,82,0.00,,,0.00,Wunderground v.1.15,2013-09-10 10:16:00,
2013-09-10 05:22:00,67.1,61.1,29.87,WSW,255,1.0,3.0,81,0.00,,,0.00,Wunderground v.1.15,2013-09-10 10:22:00,
2013-09-10 05:29:00,67.3,60.9,29.88,WSW,255,1.0,3.0,80,0.00,,,0.00,Wunderground v.1.15,2013-09-10 10:29:00,
2013-09-10 05:34:00,67.1,61.1,29.87,WSW,243,0.0,3.0,81,0.00,,,0.00,Wunderground v.1.15,2013-09-10 10:34:00,
2013-09-10 05:39:00,67.0,61.0,29.87,South,184,0.0,3.0,81,0.00,,,0.00,Wunderground v.1.15,2013-09-10 10:39:00,
2013-09-10 05:45:00,66.9,60.9,29.86,South,184,0.0,3.0,81,0.00,,,0.00,Wunderground v.1.15,2013-09-10 10:45:00,
2013-09-10 05:51:00,67.0,61.3,29.87,South,184,0.0,3.0,82,0.00,,,0.00,Wunderground v.1.15,2013-09-10 10:51:00,
2013-09-10 05:57:00,67.5,62.0,29.87,South,183,0.0,0.0,82,0.00,,,0.00,weatherlink.com 1.10,2013-09-10 10:57:00,
2013-09-10 06:02:00,67.6,61.6,29.87,South,183,0.0,3.0,81,0.00,,,0.00,Wunderground v.1.15,2013-09-10 11:02:00,
2013-09-10 06:07:00,67.3,61.3,29.87,South,183,0.0,3.0,81,0.00,,,0.00,Wunderground v.1.15,2013-09-10 11:07:00,
2013-09-10 06:13:00,67.1,61.0,29.87,South,183,0.0,0.0,82,0.00,,,0.00,weatherlink.com 1.10,2013-09-10 11:13:00,
2013-09-10 06:18:00,66.7,61.0,29.87,South,184,1.0,3.0,82,0.00,,,0.00,Wunderground v.1.15,2013-09-10 11:18:00,
2013-09-10 06:23:00,66.3,60.6,29.87,South,184,1.0,3.0,82,0.00,,,0.00,Wunderground v.1.15,2013-09-10 11:23:00,
2013-09-10 06:28:00,66.1,60.8,29.87,South,184,1.0,3.0,83,0.00,,,0.00,Wunderground v.1.15,2013-09-10 11:28:00,
2013-09-10 06:34:00,66.3,61.0,29.87,South,184,0.0,3.0,83,0.00,,,0.00,Wunderground v.1.15,2013-09-10 11:34:00,
2013-09-10 06:39:00,66.6,61.3,29.87,South,184,0.0,3.0,83,0.00,,,0.00,Wunderground v.1.15,2013-09-10 11:39:00,
2013-09-10 06:45:00,67.0,61.3,29.88,South,184,0.0,3.0,82,0.00,,,0.00,Wunderground v.1.15,2013-09-10 11:45:00,
2013-09-10 06:51:00,67.4,61.4,29.88,South,184,0.0,3.0,81,0.00,,,0.00,Wunderground v.1.15,2013-09-10 11:51:00,
2013-09-10 06:57:00,67.7,61.7,29.88,South,184,0.0,3.0,81,0.00,,,0.00,Wunderground v.1.15,2013-09-10 11:57:00,
2013-09-10 07:02:00,67.9,61.5,29.88,South,184,0.0,1.0,80,0.00,,,0.00,Wunderground v.1.15,2013-09-10 12:02:00,
2013-09-10 07:08:00,67.6,61.2,29.88,South,184,0.0,1.0,80,0.00,,,0.00,Wunderground v.1.15,2013-09-10 12:08:00,
2013-09-10 07:13:00,67.6,62.0,29.89,South,184,0.0,3.0,81,0.00,,,0.00,weatherlink.com 1.10,2013-09-10 12:13:00,
2013-09-10 07:19:00,67.8,61.8,29.89,South,184,1.0,2.0,81,0.00,,,0.00,Wunderground v.1.15,2013-09-10 12:19:00,
2013-09-10 07:25:00,68.1,61.7,29.90,South,184,0.0,1.0,80,0.00,,,0.00,Wunderground v.1.15,2013-09-10 12:25:00,
2013-09-10 07:31:00,68.2,62.1,29.90,South,184,0.0,1.0,81,0.00,,,0.00,Wunderground v.1.15,2013-09-10 12:31:00,
2013-09-10 07:36:00,68.1,62.0,29.90,South,184,0.0,1.0,81,0.00,,,0.00,Wunderground v.1.15,2013-09-10 12:36:00,
2013-09-10 07:42:00,68.1,62.0,29.90,South,184,0.0,1.0,81,0.00,,,0.00,Wunderground v.1.15,2013-09-10 12:42:00,
2013-09-10 07:47:00,68.3,62.2,29.90,South,184,0.0,1.0,81,0.00,,,0.00,Wunderground v.1.15,2013-09-10 12:47:00,
2013-09-10 07:53:00,69.0,62.9,29.90,South,184,0.0,1.0,81,0.00,,,0.00,Wunderground v.1.15,2013-09-10 12:53:00,
2013-09-10 07:59:00,69.7,63.0,29.90,South,184,0.0,1.0,80,0.00,,,0.00,weatherlink.com 1.10,2013-09-10 12:59:00,
2013-09-10 08:04:00,70.4,63.2,29.90,South,184,0.0,1.0,78,0.00,,,0.00,Wunderground v.1.15,2013-09-10 13:04:00,
2013-09-10 08:10:00,71.1,63.5,29.90,South,184,0.0,2.0,77,0.00,,,0.00,Wunderground v.1.15,2013-09-10 13:10:00,
2013-09-10 08:16:00,71.7,63.7,29.90,South,186,2.0,4.0,76,0.00,,,0.00,Wunderground v.1.15,2013-09-10 13:16:00,
2013-09-10 08:23:00,72.5,64.1,29.90,SSW,192,3.0,5.0,75,0.00,,,0.00,Wunderground v.1.15,2013-09-10 13:23:00,
2013-09-10 08:28:00,72.9,63.7,29.90,South,185,3.0,5.0,73,0.00,,,0.00,Wunderground v.1.15,2013-09-10 13:28:00,
2013-09-10 08:33:00,73.3,64.1,29.90,SSW,202,4.0,5.0,73,0.00,,,0.00,Wunderground v.1.15,2013-09-10 13:33:00,
2013-09-10 08:38:00,73.7,64.1,29.90,SSW,202,4.0,5.0,72,0.00,,,0.00,Wunderground v.1.15,2013-09-10 13:38:00,
2013-09-10 08:44:00,74.3,64.3,29.90,SSW,209,3.0,4.0,71,0.00,,,0.00,Wunderground v.1.15,2013-09-10 13:44:00,
2013-09-10 08:51:00,75.0,64.5,29.90,SSW,203,4.0,4.0,70,0.00,,,0.00,Wunderground v.1.15,2013-09-10 13:51:00,
2013-09-10 08:57:00,75.7,65.2,29.90,SSW,198,3.0,4.0,70,0.00,,,0.00,Wunderground v.1.15,2013-09-10 13:57:00,
2013-09-10 09:02:00,76.5,65.1,29.90,SSW,207,3.0,5.0,68,0.00,,,0.00,Wunderground v.1.15,2013-09-10 14:02:00,
2013-09-10 09:07:00,76.8,65.0,29.90,SSW,211,4.0,9.0,67,0.00,,,0.00,Wunderground v.1.15,2013-09-10 14:07:00,
2013-09-10 09:13:00,77.1,65.0,29.90,SSW,200,5.0,8.0,67,0.00,,,0.00,weatherlink.com 1.10,2013-09-10 14:13:00,
2013-09-10 09:18:00,77.5,64.8,29.90,SSW,208,4.0,9.0,65,0.00,,,0.00,Wunderground v.1.15,2013-09-10 14:18:00,
2013-09-10 09:24:00,77.7,64.5,29.90,SSW,210,4.0,9.0,64,0.00,,,0.00,Wunderground v.1.15,2013-09-10 14:24:00,
2013-09-10 09:30:00,77.5,64.8,29.91,SSW,207,6.0,9.0,65,0.00,,,0.00,Wunderground v.1.15,2013-09-10 14:30:00,
2013-09-10 09:36:00,76.9,64.7,29.90,SSW,194,5.0,9.0,66,0.00,,,0.00,Wunderground v.1.15,2013-09-10 14:36:00,
2013-09-10 09:42:00,76.4,65.1,29.91,SSW,202,4.0,9.0,68,0.00,,,0.00,Wunderground v.1.15,2013-09-10 14:42:00,
2013-09-10 09:47:00,76.6,65.2,29.91,SSW,213,4.0,9.0,68,0.00,,,0.00,Wunderground v.1.15,2013-09-10 14:47:00,
2013-09-10 09:53:00,77.9,65.2,29.91,WSW,248,4.0,9.0,65,0.00,,,0.00,Wunderground v.1.15,2013-09-10 14:53:00,
2013-09-10 09:59:00,79.1,64.0,29.90,WSW,238,0.0,24.0,61,0.00,,,0.00,weatherlink.com 1.10,2013-09-10 14:59:00,
2013-09-10 10:05:00,79.9,64.8,29.90,West,267,9.0,9.0,60,0.00,,,0.00,Wunderground v.1.15,2013-09-10 15:05:00,
2013-09-10 10:10:00,80.5,65.3,29.90,South,187,8.0,8.0,60,0.00,,,0.00,Wunderground v.1.15,2013-09-10 15:10:00,
2013-09-10 10:16:00,81.6,65.9,29.90,WSW,246,7.0,9.0,59,0.00,,,0.00,Wunderground v.1.15,2013-09-10 15:16:00,
2013-09-10 10:22:00,82.4,65.1,29.91,SW,236,6.0,10.0,56,0.00,,,0.00,Wunderground v.1.15,2013-09-10 15:22:00,
2013-09-10 10:28:00,82.4,65.0,29.91,WSW,243,4.0,14.0,56,0.00,,,0.00,weatherlink.com 1.10,2013-09-10 15:28:00,
2013-09-10 10:33:00,82.8,65.5,29.91,WSW,254,5.0,9.0,56,0.00,,,0.00,Wunderground v.1.15,2013-09-10 15:33:00,
2013-09-10 10:39:00,83.0,65.2,29.91,WSW,253,5.0,11.0,55,0.00,,,0.00,Wunderground v.1.15,2013-09-10 15:39:00,
2013-09-10 10:44:00,83.4,65.5,29.91,WSW,258,7.0,12.0,55,0.00,,,0.00,Wunderground v.1.15,2013-09-10 15:44:00,
2013-09-10 10:49:00,83.4,65.5,29.91,West,271,9.0,12.0,55,0.00,,,0.00,Wunderground v.1.15,2013-09-10 15:49:00,
2013-09-10 10:55:00,83.5,65.6,29.91,WSW,249,9.0,16.0,55,0.00,,,0.00,Wunderground v.1.15,2013-09-10 15:55:00,
2013-09-10 11:00:00,83.9,66.0,29.91,WSW,249,6.0,9.0,55,0.00,,,0.00,Wunderground v.1.15,2013-09-10 16:00:00,
2013-09-10 11:06:00,84.3,65.8,29.91,SW,234,6.0,22.0,54,0.00,,,0.00,Wunderground v.1.15,2013-09-10 16:06:00,
2013-09-10 11:11:00,84.8,65.8,29.91,WSW,255,8.0,22.0,53,0.00,,,0.00,Wunderground v.1.15,2013-09-10 16:11:00,
2013-09-10 11:16:00,85.2,66.1,29.91,West,279,6.0,22.0,53,0.00,,,0.00,Wunderground v.1.15,2013-09-10 16:16:00,
2013-09-10 11:22:00,85.6,66.5,29.92,WSW,244,4.0,22.0,53,0.00,,,0.00,Wunderground v.1.15,2013-09-10 16:22:00,
2013-09-10 11:28:00,85.8,65.6,29.91,WSW,249,4.0,22.0,51,0.00,,,0.00,Wunderground v.1.15,2013-09-10 16:28:00,
2013-09-10 11:33:00,85.7,66.0,29.92,WSW,255,5.0,22.0,52,0.00,,,0.00,Wunderground v.1.15,2013-09-10 16:33:00,
2013-09-10 11:38:00,86.2,66.5,29.91,WSW,250,7.0,22.0,52,0.00,,,0.00,Wunderground v.1.15,2013-09-10 16:38:00,
2013-09-10 11:43:00,86.7,67.5,29.91,West,259,8.0,22.0,53,0.00,,,0.00,Wunderground v.1.15,2013-09-10 16:43:00,
2013-09-10 11:49:00,87.2,66.9,29.91,West,261,8.0,22.0,51,0.00,,,0.00,Wunderground v.1.15,2013-09-10 16:49:00,
2013-09-10 11:55:00,87.5,67.1,29.91,SW,228,8.0,22.0,51,0.00,,,0.00,Wunderground v.1.15,2013-09-10 16:55:00,
2013-09-10 12:00:00,87.7,66.8,29.91,West,275,8.0,8.0,50,0.00,,,0.00,Wunderground v.1.15,2013-09-10 17:00:00,
2013-09-10 12:07:00,88.0,67.0,29.91,WSW,240,8.0,19.0,50,0.00,,,0.00,Wunderground v.1.15,2013-09-10 17:07:00,
2013-09-10 12:13:00,88.3,67.9,29.91,West,263,7.0,19.0,51,0.00,,,0.00,Wunderground v.1.15,2013-09-10 17:13:00,
2013-09-10 12:18:00,88.8,67.2,29.91,West,274,7.0,19.0,49,0.00,,,0.00,Wunderground v.1.15,2013-09-10 17:18:00,
2013-09-10 12:24:00,89.0,67.9,29.91,SW,235,7.0,19.0,50,0.00,,,0.00,Wunderground v.1.15,2013-09-10 17:24:00,
2013-09-10 12:29:00,89.2,68.0,29.92,WSW,240,5.0,12.0,49,0.00,,,0.00,weatherlink.com 1.10,2013-09-10 17:29:00,
2013-09-10 12:34:00,89.5,67.2,29.91,WSW,250,7.0,19.0,48,0.00,,,0.00,Wunderground v.1.15,2013-09-10 17:34:00,
2013-09-10 12:39:00,89.8,66.9,29.92,West,259,7.0,19.0,47,0.00,,,0.00,Wunderground v.1.15,2013-09-10 17:39:00,
2013-09-10 12:46:00,89.9,67.6,29.92,SW,217,9.0,19.0,48,0.00,,,0.00,Wunderground v.1.15,2013-09-10 17:46:00,
2013-09-10 12:51:00,90.1,67.8,29.92,West,265,8.0,19.0,48,0.00,,,0.00,Wunderground v.1.15,2013-09-10 17:51:00,
2013-09-10 12:56:00,90.2,67.9,29.92,WSW,241,7.0,19.0,48,0.00,,,0.00,Wunderground v.1.15,2013-09-10 17:56:00,
2013-09-10 13:01:00,90.7,68.3,29.92,SW,228,8.0,9.0,48,0.00,,,0.00,Wunderground v.1.15,2013-09-10 18:01:00,
2013-09-10 13:07:00,90.8,67.2,29.92,SW,233,9.0,13.0,46,0.00,,,0.00,Wunderground v.1.15,2013-09-10 18:07:00,
2013-09-10 13:13:00,91.1,67.4,29.92,WSW,240,9.0,13.0,46,0.00,,,0.00,Wunderground v.1.15,2013-09-10 18:13:00,
2013-09-10 13:19:00,91.5,67.8,29.92,West,272,8.0,15.0,46,0.00,,,0.00,Wunderground v.1.15,2013-09-10 18:19:00,
2013-09-10 13:25:00,91.5,67.2,29.92,WSW,245,10.0,16.0,45,0.00,,,0.00,Wunderground v.1.15,2013-09-10 18:25:00,
2013-09-10 13:30:00,91.7,66.7,29.92,West,272,11.0,13.0,44,0.00,,,0.00,Wunderground v.1.15,2013-09-10 18:30:00,
2013-09-10 13:37:00,91.8,66.8,29.92,SW,232,9.0,13.0,44,0.00,,,0.00,Wunderground v.1.15,2013-09-10 18:37:00,
2013-09-10 13:42:00,91.9,66.9,29.91,WSW,255,9.0,13.0,44,0.00,,,0.00,Wunderground v.1.15,2013-09-10 18:42:00,
2013-09-10 13:48:00,92.0,67.6,29.92,West,281,10.0,13.0,45,0.00,,,0.00,Wunderground v.1.15,2013-09-10 18:48:00,
2013-09-10 13:53:00,92.3,66.6,29.91,WSW,238,8.0,13.0,43,0.00,,,0.00,Wunderground v.1.15,2013-09-10 18:53:00,
2013-09-10 13:59:00,92.5,68.0,29.91,West,279,11.0,21.0,44,0.00,,,0.00,weatherlink.com 1.10,2013-09-10 18:59:00,
2013-09-10 14:04:00,92.9,65.7,29.91,West,267,9.0,21.0,41,0.00,,,0.00,Wunderground v.1.15,2013-09-10 19:04:00,
2013-09-10 14:10:00,92.8,66.3,29.91,West,260,9.0,21.0,42,0.00,,,0.00,Wunderground v.1.15,2013-09-10 19:10:00,
2013-09-10 14:16:00,92.6,66.8,29.91,West,275,8.0,21.0,43,0.00,,,0.00,Wunderground v.1.15,2013-09-10 19:16:00,
2013-09-10 14:22:00,93.1,67.3,29.91,West,277,8.0,21.0,43,0.00,,,0.00,Wunderground v.1.15,2013-09-10 19:22:00,
2013-09-10 14:28:00,93.5,67.0,29.91,WSW,257,7.0,21.0,42,0.00,,,0.00,Wunderground v.1.15,2013-09-10 19:28:00,
2013-09-10 14:33:00,93.4,66.9,29.91,West,272,8.0,21.0,42,0.00,,,0.00,Wunderground v.1.15,2013-09-10 19:33:00,
2013-09-10 14:40:00,93.6,67.7,29.91,WNW,288,10.0,10.0,43,0.00,,,0.00,Wunderground v.1.15,2013-09-10 19:40:00,
2013-09-10 14:45:00,93.8,67.2,29.91,SW,231,8.0,21.0,42,0.00,,,0.00,Wunderground v.1.15,2013-09-10 19:45:00,
2013-09-10 14:51:00,93.7,67.8,29.91,WSW,238,7.0,21.0,43,0.00,,,0.00,Wunderground v.1.15,2013-09-10 19:51:00,
2013-09-10 14:56:00,93.8,67.2,29.90,NW,304,6.0,21.0,42,0.00,,,0.00,Wunderground v.1.15,2013-09-10 19:56:00,
2013-09-10 15:01:00,93.6,68.4,29.90,WNW,294,7.0,9.0,44,0.00,,,0.00,Wunderground v.1.15,2013-09-10 20:01:00,
2013-09-10 15:07:00,93.7,67.8,29.90,NW,304,9.0,19.0,43,0.00,,,0.00,Wunderground v.1.15,2013-09-10 20:07:00,
2013-09-10 15:13:00,93.7,67.8,29.90,WNW,291,10.0,19.0,43,0.00,,,0.00,Wunderground v.1.15,2013-09-10 20:13:00,
2013-09-10 15:19:00,94.0,67.4,29.90,West,281,9.0,19.0,42,0.00,,,0.00,Wunderground v.1.15,2013-09-10 20:19:00,
2013-09-10 15:24:00,94.1,68.2,29.90,WSW,250,7.0,19.0,43,0.00,,,0.00,Wunderground v.1.15,2013-09-10 20:24:00,
2013-09-10 15:29:00,94.2,68.3,29.90,WSW,258,7.0,19.0,43,0.00,,,0.00,Wunderground v.1.15,2013-09-10 20:29:00,
2013-09-10 15:35:00,94.3,68.4,29.90,West,270,7.0,19.0,43,0.00,,,0.00,Wunderground v.1.15,2013-09-10 20:35:00,
2013-09-10 15:40:00,94.7,68.0,29.90,WNW,284,6.0,19.0,42,0.00,,,0.00,Wunderground v.1.15,2013-09-10 20:40:00,
2013-09-10 15:45:00,94.7,70.0,29.89,NW,304,9.0,16.0,44,0.00,,,0.00,weatherlink.com 1.10,2013-09-10 20:45:00,
2013-09-10 15:50:00,95.0,69.0,29.89,West,265,7.0,19.0,43,0.00,,,0.00,Wunderground v.1.15,2013-09-10 20:50:00,
2013-09-10 15:55:00,95.1,69.1,29.89,NW,306,6.0,19.0,43,0.00,,,0.00,Wunderground v.1.15,2013-09-10 20:55:00,
2013-09-10 16:01:00,95.0,68.3,29.89,WSW,248,4.0,4.0,42,0.00,,,0.00,Wunderground v.1.15,2013-09-10 21:01:00,
2013-09-10 16:06:00,95.0,68.3,29.89,WNW,302,5.0,16.0,42,0.00,,,0.00,Wunderground v.1.15,2013-09-10 21:06:00,
2013-09-10 16:12:00,94.8,68.1,29.89,WNW,299,7.0,16.0,42,0.00,,,0.00,Wunderground v.1.15,2013-09-10 21:12:00,
2013-09-10 16:18:00,95.1,68.4,29.89,SW,235,5.0,16.0,42,0.00,,,0.00,Wunderground v.1.15,2013-09-10 21:18:00,
2013-09-10 16:23:00,95.3,69.3,29.88,West,264,3.0,16.0,43,0.00,,,0.00,Wunderground v.1.15,2013-09-10 21:23:00,
2013-09-10 16:28:00,95.4,68.0,29.88,NW,304,3.0,16.0,41,0.00,,,0.00,Wunderground v.1.15,2013-09-10 21:28:00,
2013-09-10 16:34:00,94.7,68.0,29.88,West,277,4.0,16.0,42,0.00,,,0.00,Wunderground v.1.15,2013-09-10 21:34:00,
2013-09-10 16:40:00,94.6,68.0,29.88,NW,321,3.0,3.0,42,0.00,,,0.00,Wunderground v.1.15,2013-09-10 21:40:00,
2013-09-10 16:46:00,94.7,68.0,29.88,NW,316,7.0,9.0,42,0.00,,,0.00,weatherlink.com 1.10,2013-09-10 21:46:00,
2013-09-10 16:51:00,94.7,68.0,29.88,NW,315,4.0,16.0,42,0.00,,,0.00,Wunderground v.1.15,2013-09-10 21:51:00,
2013-09-10 16:57:00,93.9,68.7,29.90,WSW,250,5.0,17.0,44,0.00,,,0.00,Wunderground v.1.15,2013-09-10 21:57:00,
2013-09-10 17:02:00,90.7,68.3,29.90,WSW,238,9.0,16.0,48,0.00,,,0.00,Wunderground v.1.15,2013-09-10 22:02:00,
2013-09-10 17:08:00,87.7,67.3,29.90,South,178,12.0,16.0,51,0.00,,,0.00,Wunderground v.1.15,2013-09-10 22:08:00,
2013-09-10 17:14:00,85.8,67.2,29.90,South,178,10.0,16.0,54,0.00,,,0.00,Wunderground v.1.15,2013-09-10 22:14:00,
2013-09-10 17:19:00,85.1,67.6,29.90,South,188,8.0,16.0,56,0.00,,,0.00,Wunderground v.1.15,2013-09-10 22:19:00,
2013-09-10 17:24:00,84.3,67.4,29.90,SE,134,7.0,16.0,57,0.00,,,0.00,Wunderground v.1.15,2013-09-10 22:24:00,
2013-09-10 17:30:00,83.6,67.8,29.90,ESE,107,6.0,6.0,59,0.00,,,0.00,Wunderground v.1.15,2013-09-10 22:30:00,
2013-09-10 17:36:00,83.4,68.1,29.90,ESE,105,5.0,16.0,60,0.00,,,0.00,Wunderground v.1.15,2013-09-10 22:36:00,
2013-09-10 17:42:00,83.4,68.1,29.89,East,93,5.0,16.0,60,0.00,,,0.00,Wunderground v.1.15,2013-09-10 22:42:00,
2013-09-10 17:48:00,83.6,68.2,29.90,ESE,104,4.0,16.0,60,0.00,,,0.00,Wunderground v.1.15,2013-09-10 22:48:00,
2013-09-10 17:54:00,84.1,67.7,29.90,East,96,3.0,16.0,58,0.00,,,0.00,Wunderground v.1.15,2013-09-10 22:54:00,
2013-09-10 18:00:00,84.1,67.7,29.89,East,90,2.0,2.0,58,0.00,,,0.00,Wunderground v.1.15,2013-09-10 23:00:00,
2013-09-10 18:06:00,84.1,68.7,29.90,East,90,2.0,9.0,60,0.00,,,0.00,Wunderground v.1.15,2013-09-10 23:06:00,
2013-09-10 18:11:00,84.0,68.1,29.90,East,91,1.0,9.0,59,0.00,,,0.00,Wunderground v.1.15,2013-09-10 23:11:00,
2013-09-10 18:18:00,84.2,68.8,29.90,East,95,2.0,9.0,60,0.00,,,0.00,Wunderground v.1.15,2013-09-10 23:18:00,
2013-09-10 18:24:00,84.7,69.3,29.90,East,94,3.0,9.0,60,0.00,,,0.00,Wunderground v.1.15,2013-09-10 23:24:00,
2013-09-10 18:30:00,85.3,69.3,29.90,ENE,76,4.0,9.0,59,0.00,,,0.00,Wunderground v.1.15,2013-09-10 23:30:00,
2013-09-10 18:35:00,85.1,69.2,29.90,NE,47,5.0,9.0,59,0.00,,,0.00,Wunderground v.1.15,2013-09-10 23:35:00,
2013-09-10 18:41:00,84.9,68.0,29.90,ENE,61,5.0,9.0,57,0.00,,,0.00,Wunderground v.1.15,2013-09-10 23:41:00,
2013-09-10 18:47:00,84.6,67.2,29.90,NNE,30,4.0,9.0,56,0.00,,,0.00,Wunderground v.1.15,2013-09-10 23:47:00,
2013-09-10 18:53:00,84.4,68.0,29.91,East,79,3.0,9.0,58,0.00,,,0.00,Wunderground v.1.15,2013-09-10 23:53:00,
2013-09-10 18:59:00,84.3,67.9,29.91,ENE,73,3.0,9.0,58,0.00,,,0.00,Wunderground v.1.15,2013-09-10 23:59:00,
2013-09-10 19:05:00,84.3,68.4,29.91,ENE,74,3.0,12.0,59,0.00,,,0.00,Wunderground v.1.15,2013-09-11 00:05:00,
2013-09-10 19:11:00,84.2,69.3,29.91,ENE,74,1.0,12.0,61,0.00,,,0.00,Wunderground v.1.15,2013-09-11 00:11:00,
2013-09-10 19:16:00,84.1,69.7,29.91,ENE,74,0.0,12.0,62,0.00,,,0.00,Wunderground v.1.15,2013-09-11 00:16:00,
2013-09-10 19:22:00,83.5,69.1,29.94,WSW,245,3.0,13.0,62,0.00,,,0.00,Wunderground v.1.15,2013-09-11 00:22:00,
2013-09-10 19:28:00,82.4,68.5,29.94,SW,224,7.0,13.0,63,0.00,,,0.00,Wunderground v.1.15,2013-09-11 00:28:00,
2013-09-10 19:33:00,82.0,68.2,29.94,SW,223,4.0,12.0,63,0.00,,,0.00,Wunderground v.1.15,2013-09-11 00:33:00,
2013-09-10 19:39:00,82.0,68.6,29.94,North,350,1.0,12.0,64,0.00,,,0.00,Wunderground v.1.15,2013-09-11 00:39:00,
2013-09-10 19:45:00,81.9,68.5,29.94,North,351,2.0,12.0,64,0.00,,,0.00,Wunderground v.1.15,2013-09-11 00:45:00,
2013-09-10 19:51:00,81.7,68.8,29.96,WSW,253,2.0,12.0,65,0.00,,,0.00,Wunderground v.1.15,2013-09-11 00:51:00,
2013-09-10 19:56:00,81.1,68.7,29.96,WSW,250,4.0,12.0,66,0.00,,,0.00,Wunderground v.1.15,2013-09-11 00:56:00,
2013-09-10 20:02:00,80.0,68.1,29.96,WSW,244,6.0,12.0,67,0.00,,,0.00,Wunderground v.1.15,2013-09-11 01:02:00,
2013-09-10 20:07:00,79.1,67.6,29.97,WSW,244,6.0,12.0,68,0.00,,,0.00,Wunderground v.1.15,2013-09-11 01:07:00,
2013-09-10 20:13:00,78.4,67.4,29.97,West,267,5.0,12.0,69,0.00,,,0.00,Wunderground v.1.15,2013-09-11 01:13:00,
2013-09-10 20:19:00,77.7,67.1,29.96,NW,314,4.0,12.0,70,0.00,,,0.00,Wunderground v.1.15,2013-09-11 01:19:00,
2013-09-10 20:25:00,77.3,66.3,29.96,NW,313,5.0,12.0,69,0.00,,,0.00,Wunderground v.1.15,2013-09-11 01:25:00,
2013-09-10 20:31:00,77.3,66.0,29.97,West,281,5.0,8.0,69,0.00,,,0.00,weatherlink.com 1.10,2013-09-11 01:31:00,
2013-09-10 20:37:00,77.4,66.4,29.97,WNW,291,5.0,12.0,69,0.00,,,0.00,Wunderground v.1.15,2013-09-11 01:37:00,
2013-09-10 20:42:00,77.4,66.4,29.98,WNW,296,5.0,12.0,69,0.00,,,0.00,Wunderground v.1.15,2013-09-11 01:42:00,
2013-09-10 20:48:00,77.5,66.9,29.99,WSW,252,3.0,12.0,70,0.00,,,0.00,Wunderground v.1.15,2013-09-11 01:48:00,
2013-09-10 20:54:00,77.2,66.7,30.00,WSW,242,4.0,12.0,70,0.00,,,0.00,Wunderground v.1.15,2013-09-11 01:54:00,
2013-09-10 21:00:00,77.3,66.7,30.00,West,275,7.0,9.0,70,0.00,,,0.00,Wunderground v.1.15,2013-09-11 02:00:00,
2013-09-10 21:06:00,77.2,66.7,30.00,West,273,6.0,14.0,70,0.00,,,0.00,Wunderground v.1.15,2013-09-11 02:06:00,
2013-09-10 21:11:00,76.9,67.2,30.00,West,269,5.0,14.0,72,0.00,,,0.00,Wunderground v.1.15,2013-09-11 02:11:00,
2013-09-10 21:16:00,76.3,67.4,30.00,West,270,3.0,14.0,74,0.00,,,0.00,Wunderground v.1.15,2013-09-11 02:16:00,
2013-09-10 21:22:00,75.8,67.3,30.00,West,270,1.0,14.0,75,0.00,,,0.00,Wunderground v.1.15,2013-09-11 02:22:00,
2013-09-10 21:29:00,75.4,67.3,30.00,West,270,1.0,14.0,76,0.00,,,0.00,Wunderground v.1.15,2013-09-11 02:29:00,
2013-09-10 21:34:00,75.2,67.1,30.00,West,270,1.0,14.0,76,0.00,,,0.00,Wunderground v.1.15,2013-09-11 02:34:00,
2013-09-10 21:40:00,75.5,67.8,30.00,North,11,2.0,14.0,77,0.00,,,0.00,Wunderground v.1.15,2013-09-11 02:40:00,
2013-09-10 21:46:00,75.5,68.0,29.99,North,9,3.0,6.0,78,0.00,,,0.00,weatherlink.com 1.10,2013-09-11 02:46:00,
2013-09-10 21:52:00,75.1,68.1,29.99,North,10,2.0,14.0,79,0.00,,,0.00,Wunderground v.1.15,2013-09-11 02:52:00,
2013-09-10 21:58:00,74.7,68.1,29.99,NNE,19,2.0,14.0,80,0.00,,,0.00,Wunderground v.1.15,2013-09-11 02:58:00,
2013-09-10 22:04:00,74.4,67.8,29.99,NNE,19,2.0,6.0,80,0.00,,,0.00,Wunderground v.1.15,2013-09-11 03:04:00,
2013-09-10 22:10:00,74.1,67.9,29.98,NE,46,3.0,6.0,81,0.00,,,0.00,Wunderground v.1.15,2013-09-11 03:10:00,
2013-09-10 22:16:00,74.0,67.8,29.98,ENE,57,5.0,7.0,81,0.00,,,0.00,Wunderground v.1.15,2013-09-11 03:16:00,
2013-09-10 22:22:00,73.9,68.1,29.98,East,84,6.0,6.0,82,0.00,,,0.00,Wunderground v.1.15,2013-09-11 03:22:00,
2013-09-10 22:28:00,74.0,68.5,29.99,ENE,74,4.0,7.0,83,0.00,,,0.00,Wunderground v.1.15,2013-09-11 03:28:00,
2013-09-10 22:34:00,74.0,68.2,30.00,NE,38,3.0,6.0,82,0.00,,,0.00,Wunderground v.1.15,2013-09-11 03:34:00,
2013-09-10 22:39:00,74.1,68.3,30.01,NE,38,2.0,6.0,82,0.00,,,0.00,Wunderground v.1.15,2013-09-11 03:39:00,
2013-09-10 22:45:00,74.1,68.6,30.03,SW,223,1.0,8.0,83,0.00,,,0.00,Wunderground v.1.15,2013-09-11 03:45:00,
2013-09-10 22:51:00,73.6,68.5,30.04,West,269,5.0,6.0,84,0.00,,,0.01,Wunderground v.1.15,2013-09-11 03:51:00,
2013-09-10 22:56:00,73.2,68.4,30.04,WSW,240,6.0,6.0,85,0.08,,,0.02,Wunderground v.1.15,2013-09-11 03:56:00,
2013-09-10 23:01:00,73.0,68.6,30.04,WSW,246,5.0,17.0,86,0.10,,,0.03,Wunderground v.1.15,2013-09-11 04:01:00,
2013-09-10 23:03:00,72.9,68.5,30.04,WSW,246,5.0,17.0,86,0.10,,,0.03,Wunderground v.1.15,2013-09-11 04:03:00,
2013-09-10 23:07:00,72.6,68.5,30.03,WSW,245,4.0,17.0,87,0.09,,,0.03,Wunderground v.1.15,2013-09-11 04:07:00,
2013-09-10 23:10:00,72.6,68.8,30.03,WSW,244,3.0,3.0,88,0.08,,,0.04,Wunderground v.1.15,2013-09-11 04:10:00,
2013-09-10 23:14:00,72.3,68.5,30.03,SSW,207,2.0,17.0,88,0.08,,,0.04,Wunderground v.1.15,2013-09-11 04:14:00,
2013-09-10 23:16:00,72.3,68.5,30.03,SSW,210,2.0,17.0,88,0.07,,,0.04,Wunderground v.1.15,2013-09-11 04:16:00,
2013-09-10 23:22:00,72.1,68.7,30.03,SSW,211,2.0,17.0,89,0.05,,,0.05,Wunderground v.1.15,2013-09-11 04:22:00,
2013-09-10 23:28:00,71.9,68.5,30.02,SSW,211,1.0,17.0,89,0.05,,,0.05,Wunderground v.1.15,2013-09-11 04:28:00,
2013-09-10 23:33:00,71.9,68.8,30.01,SSW,210,0.0,17.0,90,0.05,,,0.06,Wunderground v.1.15,2013-09-11 04:33:00,
2013-09-10 23:39:00,71.8,68.7,30.02,SSW,210,0.0,17.0,90,0.05,,,0.06,Wunderground v.1.15,2013-09-11 04:39:00,
2013-09-10 23:44:00,71.8,68.7,30.02,South,183,1.0,17.0,90,0.05,,,0.06,Wunderground v.1.15,2013-09-11 04:44:00,
2013-09-10 23:50:00,71.7,68.6,30.03,South,183,2.0,2.0,90,0.00,,,0.06,Wunderground v.1.15,2013-09-11 04:50:00,
2013-09-10 23:56:00,71.6,68.8,30.04,SW,221,2.0,17.0,91,0.00,,,0.06,Wunderground v.1.15,2013-09-11 04:56:00,